STARLINK-37541, 68906

Orbit data source: Space-Track

STARLINK-37541, 68906 is a payload satellite owned by SpaceX/Seattle (US) in SSO that was launched on Thu, 30 Apr 2026 UTC via an FALCON 9 launch vehicle from the Air Force Western Test Range (AFWTR). Payload-class satellites include a variety of spacecraft equipped with specific instruments for various scientific and technological missions. These include communications satellites like Starlink; space stations such as the ISS; scientific satellites like the Hubble; Earth observation satellites from companies like Planet Labs, Umbra, and HawkEye 360; GPS; miniature CubeSats for education and research; and military/defense satellites.

Loading next visibility...
Identifier
68906, 2026-097M
Orbit
SSO
Country
Flag of USUS
Related business
Manufacturer
SpaceX/Seattle
Mission
Operational spacecraft
Bus & Motor
STARLINK V2MO, Unknown motor
Mass
575 kg wet, ~530 kg dry
Launch date (UTC)
2026-04-30 (2 months ago)
Launch vehicle
FALCON 9
Launch site
Air Force Western Test Range (AFWTR)
Object type
Payload
Rocket body
Debris
Shape & HBR
Unknown shape, 14.5 m
Radar Cross Section
Large (>1 m²)

Expand to show TLE details & history
Last TLE update: 20 hours ago

TLE from 20 hours ago
0 STARLINK-37541
1 68906U 26097M   26171.00794703  .00017033  00000-0  52855-3 0  9992
2 68906  97.2848   6.4077 0001210  94.5409 265.5972 15.33456689  7911
Epoch: 2026-06-20T00:11Z
TLE epoch observation values (Epoch: 2026-06-20T00:11:26.623Z)
Latitude
-0.00002°
Longitude
95.31803°
Altitude
468.684 km
Speed
7.632 km/s
True Right ascension
00h 25m 37s
True Declination
0° 00' 00"
Sunlit
Object was in daylight at epoch
Visualization orbit readout
Latitude
Unknown
Longitude
Unknown
Altitude
Unknown
Speed
Unknown
Apparent Right ascension
Unknown
Apparent Declination
Unknown
Sunlit
N/A
Visualization observer readout
Local Sidereal Time
07:19:38
Azimuth
Unknown
Elevation
Unknown
Doppler factor
Unknown
Orbital elements
Apogee altitude
463.279 km
Perigee altitude
461.623 km
Semi-major axis
6,840.588 km
Eccentricity
0.00012
Inclination
97.2848°
RAAN
6.4077°
Arg. of periapsis
94.5409°
True anomaly
265.58338°
Mean anomaly
265.5972°
Eccentric anomaly
265.59029°
Mean motion
3.83622 °/min
Orbital period
93.84 mins
BSTAR
0.00052855
Loading maneuver chart data...
Computing Atmospheric mass density...
Loading historical data...
Loading historical data...
Loading historical data...
Loading historical data...
Loading historical data...
Loading historical data...
Loading historical data...

Documentation

Showing up to 5 results
|